Temp
-7 -6 -6 -6 -6 -5 -5 -5 -5 -5 -5 -5 -6 -6 -6 -7 -7 -7 -7 -7 -7 -7 -7 -7 -8 -8 -10 -10 -9 -9 -10 -10 -9 -8 -8 -9 -9 -10 -8 -9 -10 -11 -11 -11 -10
-7 -6 -6 -6 -6 -5 -5 -5 -5 -5 -6 -6 -6 -7 -7 -8 -8 -7 -7 -7 -7 -7 -8 -7 -8 -8 -10 -10 -9 -10 -10 -10 -9 -8 -9 -10 -9 -9 -8 -10 -10 -11 -10 -10 -10
-7 -6 -6 -6 -6 -6 -6 -6 -6 -6 -6 -6 -7 -7 -7 -8 -7 -7 -8 -8 -8 -8 -8 -9 -9 -8 -10 -10 -10 -10 -10 -10 -10 -10 -9 -10 -10 -9 -10 -10 -10 -10 -10 -10 -10
-7 -6 -6 -6 -6 -6 -6 -6 -6 -6 -7 -7 -7 -7 -7 -8 -8 -8 -8 -8 -8 -8 -8 -9 -9 -10 -9 -10 -10 -10 -10 -10 -9 -9 -10 -10 -10 -10 -10 -10 -11 -10 -10 -10 -11
-7 -6 -6 -6 -6 -6 -6 -6 -7 -7 -7 -7 -7 -7 -7 -8 -8 -8 -8 -8 -8 -8 -8 -8 -8 -9 -10 -10 -10 -11 -10 -10 -10 -10 -9 -10 -11 -11 -11 -10 -10 -10 -11 -11 -11
-7 -7 -7 -7 -6 -6 -7 -7 -7 -7 -7 -7 -7 -7 -8 -8 -8 -8 -8 -8 -8 -8 -8 -8 -7 -10 -10 -10 -10 -10 -10 -8 -9 -9 -9 -10 -10 -10 -10 -10 -11 -11 -11 -11 -11
-7 -7 -7 -7 -6 -7 -7 -7 -7 -7 -7 -7 -7 -7 -8 -8 -8 -8 -8 -8 -8 -8 -8 -8 -8 -9 -9 -10 -10 -11 -10 -10 -10 -10 -10 -10 -10 -10 -10 -10 -10 -11 -11 -11 -11
-7 -7 -7 -7 -7 -7 -7 -7 -7 -7 -7 -8 -8 -8 -8 -8 -8 -8 -8 -8 -8 -8 -8 -8 -8 -9 -9 -9 -9 -10 -11 -10 -9 -11 -10 -10 -10 -10 -9 -11 -12 -11 -11 -11 -12
-7 -7 -7 -7 -7 -7 -7 -7 -7 -8 -8 -8 -8 -8 -8 -8 -8 -8 -8 -8 -8 -8 -8 -8 -8 -10 -9 -10 -10 -10 -10 -10 -10 -9 -10 -10 -10 -10 -10 -12 -12 -12 -12 -12 -12
-7 -7 -7 -7 -7 -8 -8 -8 -8 -8 -8 -8 -8 -8 -8 -8 -8 -8 -8 -8 -8 -8 -8 -9 -10 -10 -11 -11 -10 -11 -11 -11 -10 -10 -11 -10 -10 -11 -11 -10 -12 -12 -12 -12 -12
-8 -8 -8 -8 -8 -8 -8 -8 -8 -8 -8 -8 -8 -8 -8 -8 -8 -8 -8 -8 -9 -8 -9 -9 -9 -10 -10 -11 -11 -10 -11 -11 -11 -10 -10 -10 -10 -9 -10 -11 -11 -12 -13 -12 -12
-8 -8 -8 -8 -8 -8 -8 -8 -8 -8 -8 -8 -8 -8 -9 -9 -9 -9 -9 -9 -9 -10 -10 -10 -10 -10 -11 -10 -11 -11 -11 -11 -10 -11 -10 -11 -11 -11 -11 -11 -11 -12 -13 -13 -12
-8 -8 -8 -8 -8 -8 -8 -8 -8 -8 -8 -8 -8 -8 -9 -9 -8 -9 -9 -8 -9 -10 -11 -11 -10 -10 -10 -10 -10 -10 -10 -10 -10 -10 -11 -11 -11 -11 -11 -11 -11 -12 -14 -13 -12
-8 -9 -9 -9 -9 -9 -8 -8 -8 -8 -8 -9 -9 -9 -9 -9 -10 -10 -9 -9 -11 -11 -10 -11 -10 -10 -10 -11 -10 -10 -10 -10 -10 -10 -12 -12 -12 -12 -12 -11 -12 -12 -13 -13 -13
-8 -9 -9 -9 -9 -9 -9 -8 -9 -9 -9 -10 -9 -9 -10 -10 -10 -10 -9 -10 -11 -11 -10 -10 -11 -11 -10 -10 -10 -10 -10 -10 -10 -10 -11 -12 -12 -11 -11 -13 -12 -13 -13 -13 -13
-9 -9 -9 -9 -9 -9 -9 -9 -9 -10 -10 -11 -10 -10 -9 -11 -11 -10 -10 -10 -9 -11 -11 -11 -10 -10 -10 -10 -10 -10 -10 -10 -10 -11 -11 -11 -12 -12 -12 -12 -13 -13 -13 -13 -13
-9 -9 -9 -9 -9 -9 -9 -9 -9 -10 -11 -11 -11 -10 -11 -11 -10 -11 -11 -11 -10 -10 -10 -11 -10 -11 -10 -11 -11 -10 -10 -10 -10 -10 -11 -12 -13 -13 -12 -13 -13 -13 -13 -13 -13
-9 -9 -9 -9 -9 -9 -9 -9 -10 -11 -11 -11 -11 -11 -11 -11 -11 -11 -11 -11 -11 -10 -10 -10 -10 -10 -10 -11 -11 -11 -11 -11 -10 -11 -12 -13 -13 -12 -13 -13 -13 -12 -13 -13 -13
-9 -9 -9 -9 -9 -10 -9 -9 -10 -10 -11 -11 -10 -11 -11 -11 -11 -11 -11 -11 -10 -10 -11 -11 -11 -11 -11 -11 -11 -11 -11 -12 -11 -11 -13 -13 -13 -13 -13 -12 -13 -13 -14 -14 -14
-9 -9 -9 -9 -9 -9 -10 -10 -10 -10 -11 -11 -11 -11 -11 -11 -11 -11 -11 -11 -11 -9 -11 -10 -11 -11 -12 -12 -11 -11 -11 -11 -11 -12 -13 -12 -13 -13 -13 -13 -13 -14 -14 -14 -14
-9 -9 -9 -9 -9 -10 -10 -10 -10 -10 -11 -10 -10 -10 -10 -11 -10 -10 -10 -10 -10 -10 -11 -10 -10 -11 -12 -11 -11 -11 -11 -12 -12 -12 -12 -13 -13 -13 -13 -14 -13 -14 -14 -14 -15
-9 -9 -9 -9 -10 -10 -10 -9 -11 -10 -10 -10 -10 -10 -9 -9 -10 -11 -10 -10 -10 -10 -11 -10 -10 -11 -11 -11 -12 -11 -12 -13 -13 -13 -13 -13 -13 -13 -13 -14 -14 -14 -14 -14 -16
-9 -9 -9 -9 -9 -9 -9 -10 -10 -10 -9 -9 -9 -9 -10 -10 -11 -11 -10 -10 -10 -10 -10 -10 -10 -11 -12 -12 -12 -13 -12 -13 -13 -13 -13 -13 -13 -14 -13 -14 -14 -15 -14 -14 -15
-9 -9 -9 -10 -11 -10 -9 -10 -10 -10 -9 -9 -9 -9 -9 -10 -10 -10 -10 -9 -9 -10 -10 -11 -11 -12 -12 -12 -13 -14 -13 -13 -13 -13 -13 -13 -13 -14 -14 -15 -15 -15 -15 -15 -16
-9 -9 -9 -9 -9 -9 -10 -10 -9 -10 -9 -9 -9 -9 -9 -10 -10 -10 -10 -10 -10 -10 -10 -11 -12 -12 -12 -12 -13 -14 -14 -13 -13 -13 -14 -14 -14 -14 -14 -15 -15 -15 -15 -16 -16
-9 -9 -9 -10 -10 -10 -10 -10 -10 -9 -9 -9 -10 -10 -9 -10 -11 -11 -11 -11 -11 -11 -11 -11 -12 -12 -12 -13 -14 -14 -13 -14 -13 -13 -14 -14 -14 -14 -14 -15 -15 -16 -16 -16 -16
-10 -10 -10 -10 -10 -10 -10 -11 -10 -9 -10 -10 -10 -10 -10 -11 -11 -11 -11 -12 -12 -12 -12 -12 -12 -12 -13 -14 -14 -14 -14 -14 -13 -13 -14 -14 -14 -14 -14 -15 -15 -15 -15 -16 -16
Height
5900 5900 5899 5899 5899 5898 5897 5896 5895 5894 5892 5891 5890 5890 5891 5891 5892 5894 5896 5898 5899 5900 5901 5902 5903 5905 5910 5913 5913 5911 5909 5910 5907 5897 5896 5905 5909 5906 5901 5900 5898 5896 5896 5895 5891
5898 5898 5898 5897 5897 5895 5895 5894 5893 5892 5891 5890 5889 5889 5890 5889 5891 5893 5896 5898 5899 5901 5904 5906 5906 5905 5908 5913 5911 5912 5912 5905 5901 5903 5899 5906 5908 5908 5903 5901 5896 5894 5898 5894 5895
5896 5896 5896 5895 5895 5894 5893 5893 5891 5891 5889 5889 5888 5888 5890 5890 5892 5893 5895 5899 5900 5902 5905 5907 5912 5909 5911 5912 5916 5917 5912 5908 5900 5899 5904 5906 5905 5904 5904 5903 5900 5898 5894 5892 5888
5895 5895 5894 5894 5893 5892 5892 5891 5890 5890 5889 5889 5889 5890 5891 5892 5895 5895 5897 5899 5901 5903 5905 5907 5911 5911 5913 5915 5918 5918 5914 5912 5907 5906 5907 5904 5906 5906 5905 5902 5898 5897 5894 5889 5886
5893 5893 5893 5893 5892 5892 5891 5891 5891 5890 5890 5890 5890 5891 5893 5894 5896 5896 5898 5900 5902 5903 5905 5907 5908 5907 5909 5916 5917 5914 5910 5907 5910 5910 5908 5904 5903 5903 5901 5900 5898 5894 5889 5886 5882
5891 5892 5892 5892 5892 5891 5891 5891 5891 5891 5891 5891 5892 5893 5895 5896 5898 5898 5900 5902 5904 5905 5905 5907 5907 5907 5910 5910 5910 5913 5906 5909 5911 5907 5902 5900 5900 5899 5898 5896 5893 5888 5884 5881 5878
5890 5891 5892 5891 5891 5891 5892 5892 5892 5893 5892 5893 5895 5896 5897 5898 5899 5900 5901 5903 5905 5905 5906 5907 5906 5906 5908 5907 5908 5908 5906 5905 5905 5899 5895 5899 5897 5893 5890 5889 5886 5882 5879 5877 5874
5889 5890 5891 5891 5891 5892 5892 5892 5893 5894 5894 5895 5897 5898 5898 5899 5900 5902 5902 5904 5905 5905 5907 5908 5907 5908 5908 5903 5908 5911 5908 5902 5901 5900 5896 5898 5896 5886 5884 5882 5881 5878 5875 5872 5869
5888 5889 5890 5891 5892 5892 5893 5893 5894 5895 5896 5897 5899 5899 5901 5900 5901 5902 5903 5905 5906 5907 5908 5908 5908 5911 5910 5906 5907 5904 5902 5899 5900 5900 5892 5886 5883 5879 5871 5874 5875 5875 5873 5869 5864
5886 5888 5890 5891 5892 5892 5893 5894 5895 5896 5897 5899 5899 5901 5902 5902 5902 5903 5904 5906 5906 5908 5908 5908 5910 5910 5908 5904 5905 5902 5900 5900 5899 5894 5888 5876 5872 5859 5862 5860 5862 5870 5869 5865 5859
5885 5888 5889 5890 5892 5893 5894 5895 5897 5899 5898 5899 5901 5900 5901 5902 5904 5905 5906 5906 5907 5909 5908 5909 5910 5909 5907 5910 5908 5902 5900 5898 5895 5893 5885 5876 5873 5840 5844 5861 5866 5864 5861 5858 5854
5885 5888 5889 5890 5891 5893 5894 5895 5897 5899 5899 5899 5900 5899 5901 5903 5904 5906 5907 5907 5908 5907 5908 5909 5909 5911 5909 5910 5909 5906 5903 5900 5899 5896 5884 5884 5877 5866 5858 5861 5853 5852 5852 5853 5850
5885 5887 5888 5890 5891 5892 5893 5894 5896 5897 5898 5899 5899 5899 5902 5903 5902 5906 5907 5906 5906 5906 5908 5910 5910 5909 5909 5908 5907 5903 5901 5900 5898 5897 5885 5881 5876 5868 5867 5861 5853 5847 5848 5846 5843
5885 5886 5888 5890 5892 5892 5893 5894 5896 5895 5897 5900 5899 5900 5902 5902 5904 5905 5906 5906 5907 5910 5912 5908 5906 5907 5907 5902 5901 5900 5898 5895 5894 5890 5886 5882 5876 5865 5863 5859 5854 5844 5841 5838 5832
5884 5886 5887 5889 5890 5891 5894 5893 5893 5894 5896 5899 5900 5901 5902 5902 5905 5906 5906 5905 5905 5907 5911 5908 5904 5903 5900 5899 5898 5895 5893 5893 5889 5885 5880 5875 5871 5862 5860 5858 5851 5842 5838 5833 5828
5883 5885 5887 5888 5889 5890 5890 5892 5894 5897 5896 5900 5900 5901 5902 5903 5906 5905 5907 5906 5906 5905 5905 5903 5902 5902 5900 5897 5893 5892 5888 5886 5884 5881 5874 5870 5866 5858 5856 5848 5842 5841 5836 5829 5824
5882 5884 5886 5888 5889 5890 5892 5893 5897 5898 5900 5902 5903 5902 5902 5905 5906 5906 5905 5905 5902 5902 5903 5899 5899 5898 5895 5893 5891 5886 5883 5878 5879 5876 5870 5866 5863 5859 5856 5851 5845 5840 5835 5830 5823
5881 5883 5885 5886 5888 5890 5892 5896 5895 5896 5897 5902 5905 5905 5906 5906 5905 5906 5905 5903 5900 5900 5899 5896 5894 5893 5890 5887 5883 5879 5878 5876 5869 5869 5867 5861 5857 5856 5853 5849 5845 5839 5833 5826 5819
5879 5882 5884 5885 5887 5890 5893 5895 5896 5895 5902 5903 5906 5906 5905 5901 5904 5902 5897 5896 5896 5897 5898 5895 5892 5887 5886 5881 5879 5878 5876 5874 5867 5866 5861 5857 5855 5854 5851 5845 5842 5834 5828 5821 5815
5879 5881 5884 5886 5887 5890 5892 5894 5895 5895 5899 5902 5899 5901 5900 5901 5901 5897 5896 5896 5894 5896 5892 5891 5890 5887 5883 5879 5876 5874 5871 5869 5866 5861 5857 5853 5851 5850 5846 5843 5836 5832 5824 5817 5811
5880 5882 5883 5886 5887 5890 5892 5893 5894 5897 5898 5898 5896 5896 5896 5897 5896 5890 5893 5894 5892 5891 5886 5885 5885 5887 5879 5874 5874 5871 5869 5866 5862 5857 5855 5852 5849 5845 5842 5838 5834 5828 5820 5814 5805
5879 5881 5884 5885 5887 5888 5890 5892 5893 5893 5894 5895 5895 5894 5893 5894 5894 5885 5886 5886 5888 5885 5882 5881 5880 5879 5871 5871 5869 5864 5863 5861 5858 5856 5853 5851 5848 5843 5840 5835 5830 5824 5817 5811 5802
5878 5881 5883 5884 5885 5886 5888 5889 5889 5890 5890 5891 5891 5892 5892 5891 5892 5887 5882 5883 5882 5880 5879 5877 5875 5874 5868 5867 5865 5860 5859 5857 5856 5852 5851 5849 5846 5841 5837 5832 5826 5820 5813 5805 5796
5877 5880 5881 5884 5885 5885 5886 5886 5887 5888 5887 5887 5888 5888 5887 5887 5884 5882 5878 5877 5877 5876 5876 5873 5870 5868 5866 5863 5860 5857 5855 5854 5854 5850 5848 5847 5843 5839 5834 5829 5823 5815 5808 5801 5793
5876 5878 5880 5881 5883 5883 5884 5884 5883 5884 5884 5884 5883 5882 5882 5882 5879 5874 5873 5871 5871 5871 5873 5870 5866 5863 5860 5860 5857 5855 5853 5852 5851 5850 5848 5845 5841 5836 5833 5827 5820 5812 5803 5797 5789
5874 5876 5878 5879 5881 5881 5882 5881 5879 5879 5881 5879 5880 5878 5879 5878 5875 5873 5870 5868 5866 5864 5865 5865 5862 5859 5857 5857 5852 5852 5852 5851 5850 5849 5846 5842 5837 5833 5829 5824 5818 5810 5803 5794 5786
5871 5873 5876 5877 5877 5878 5880 5879 5875 5877 5876 5877 5877 5875 5875 5873 5872 5871 5868 5866 5863 5860 5859 5858 5856 5855 5854 5853 5851 5854 5851 5851 5848 5847 5845 5840 5835 5830 5824 5819 5812 5805 5796 5789 5781
Wind_Speed
16 11 9 10 9 9 11 12 13 13 10 8 7 6 7 5 5 5 4 5 8 13 15 20 22 25 20 12 7 10 13 7 19 17 8 10 16 23 33 17 13 16 14 15 15
15 13 9 8 8 9 11 12 11 10 7 5 4 3 2 2 4 4 6 7 12 13 16 18 22 25 21 11 5 16 6 7 15 15 12 17 22 26 18 15 15 15 18 18 14
14 12 8 7 8 9 10 10 8 5 3 2 1 1 2 3 5 7 9 11 15 18 20 22 22 22 20 15 8 14 9 10 17 20 18 21 23 22 13 15 15 18 22 22 21
13 9 7 7 8 9 8 6 4 2 2 3 4 5 6 7 6 10 14 16 17 16 18 22 22 22 12 9 9 15 17 15 16 20 23 22 18 18 17 16 18 20 21 22 26
10 7 6 7 7 6 4 2 1 2 4 5 7 7 8 8 11 15 16 16 14 13 12 17 15 19 14 2 16 17 18 19 19 19 18 16 23 23 20 21 21 23 22 25 27
8 6 5 5 5 3 1 2 3 4 6 8 8 9 9 13 12 14 14 13 10 6 7 3 4 19 14 9 17 11 18 16 17 24 20 22 13 14 21 23 26 27 23 23 25
5 5 3 3 2 1 2 3 4 6 8 9 10 10 11 12 12 13 12 10 7 4 4 1 4 11 14 18 18 17 18 19 32 22 24 22 8 19 24 27 26 25 26 26 29
4 3 1 1 1 3 3 5 6 8 9 10 9 9 10 11 11 10 9 7 6 4 3 2 4 3 6 5 10 15 19 30 30 11 29 29 14 25 29 27 26 26 27 28 32
4 3 1 1 2 4 4 6 7 8 8 8 8 9 8 11 10 7 6 6 6 5 4 3 3 4 4 4 12 22 26 28 36 33 30 34 36 32 38 29 30 30 27 28 32
4 4 2 1 3 5 5 6 7 7 7 6 7 9 9 7 9 6 4 3 7 4 5 12 11 12 11 11 18 26 24 27 33 31 29 41 43 46 33 29 14 16 19 28 27
5 5 3 3 4 6 7 7 6 5 7 4 2 9 10 8 7 5 3 6 6 4 12 10 3 8 12 10 12 18 22 28 30 38 38 40 37 15 33 17 25 9 18 25 27
7 6 4 4 6 7 8 7 5 5 4 4 5 8 8 5 7 5 8 9 11 16 17 13 5 5 5 7 8 16 18 25 29 28 35 32 34 41 51 44 48 11 21 24 27
8 6 6 5 7 8 8 8 5 5 5 4 4 6 3 2 7 7 8 10 11 10 8 16 16 11 9 12 12 23 24 24 26 25 25 30 37 44 45 33 28 29 33 35 35
8 7 7 7 7 6 7 7 5 3 6 5 2 5 1 4 5 2 3 11 10 6 5 11 17 19 3 16 18 19 24 28 25 18 17 30 32 38 31 38 23 41 37 40 42
8 9 9 9 8 8 5 9 6 5 12 6 3 3 4 7 3 3 11 14 10 6 11 17 18 22 23 18 20 25 26 24 24 26 22 15 24 36 40 37 29 40 41 42 45
10 9 8 9 9 10 12 8 7 8 5 7 6 1 3 7 5 3 10 9 8 15 9 17 22 17 23 29 22 21 26 25 26 23 23 25 26 37 39 33 37 34 39 44 48
9 9 8 8 9 7 7 8 5 8 11 5 8 11 13 4 7 4 7 4 10 13 18 17 17 17 21 17 19 26 24 27 25 21 20 22 25 29 35 31 31 37 40 44 48
9 8 9 10 9 8 10 11 17 15 16 10 5 10 3 14 16 11 13 14 15 14 14 17 22 22 25 25 27 27 24 29 33 20 7 21 29 29 27 28 27 35 41 45 49
8 9 10 12 12 12 11 13 16 14 9 5 6 8 13 21 13 6 13 15 15 11 16 19 24 28 22 20 27 25 27 30 26 18 13 18 17 28 21 27 33 38 41 45 49
11 12 11 10 13 13 12 7 9 11 7 15 15 19 20 21 16 15 17 22 25 13 19 20 21 24 20 24 29 30 30 23 20 16 13 16 26 21 26 29 34 36 41 45 49
12 12 12 12 12 13 10 6 5 5 13 18 15 19 20 18 8 13 13 16 21 22 27 26 20 13 24 29 26 27 22 20 16 13 11 18 25 28 30 32 36 39 42 46 46
14 12 12 12 14 15 12 9 7 7 11 16 20 18 19 20 19 20 29 29 28 28 28 24 18 14 24 25 24 27 23 20 11 12 14 17 21 26 30 34 38 40 43 44 41
13 12 10 11 10 10 11 9 13 11 13 12 15 15 17 20 21 30 34 28 24 24 22 21 19 15 21 23 24 25 24 14 9 14 18 20 23 27 32 35 38 40 42 44 44
14 11 10 10 9 10 7 11 12 13 15 16 16 15 19 20 21 20 26 24 20 18 17 18 18 17 19 22 19 14 20 9 7 14 19 21 25 28 32 34 36 39 42 43 41
11 10 10 7 6 9 7 11 13 14 16 16 20 19 18 17 20 24 24 25 22 20 12 12 15 17 19 14 15 15 14 9 12 13 17 22 25 29 31 33 35 38 42 42 41
13 12 10 9 10 9 9 13 17 19 15 17 17 19 17 16 17 20 22 24 27 27 22 17 17 17 16 12 14 10 7 10 14 15 19 25 28 32 33 32 32 35 37 37 35
14 12 10 10 12 13 14 16 21 19 20 18 19 19 16 18 18 17 19 21 23 27 25 21 17 16 10 11 15 8 7 11 16 19 20 24 28 33 36 35 34 36 39 38 32
Wind_Direction
324 319 315 305 301 311 314 317 318 319 322 318 305 289 271 238 227 211 182 166 144 146 139 137 137 136 147 140 140 41 14 10 317 290 218 335 337 314 324 339 11 349 334 340 332
318 308 306 300 307 317 315 320 325 327 325 320 311 296 252 195 191 171 145 141 137 134 124 133 146 149 141 141 64 348 305 287 283 287 336 315 322 313 328 348 344 330 330 328 324
307 298 297 308 316 322 323 328 336 329 337 344 2 79 106 138 157 141 124 132 130 127 124 123 149 144 153 94 17 282 59 301 282 287 298 302 309 315 335 322 331 322 324 328 327
284 282 300 315 328 332 335 345 340 350 49 72 80 85 102 121 116 117 121 120 124 137 142 130 141 153 131 44 276 263 260 245 275 290 298 309 305 312 314 317 314 318 326 324 322
273 275 295 325 335 344 348 2 64 83 78 83 86 93 106 111 118 119 115 119 132 144 147 150 169 137 83 219 264 266 259 264 273 277 271 277 304 309 304 306 307 312 317 319 316
251 269 301 336 350 0 30 111 98 86 88 88 97 108 107 105 114 112 111 116 127 134 134 180 110 138 168 217 240 234 263 288 291 282 266 265 277 302 314 308 306 305 311 312 310
237 268 307 0 15 68 116 113 95 97 95 99 106 111 112 116 110 110 111 115 123 123 94 36 136 159 190 204 218 247 268 281 329 252 288 268 288 339 308 301 304 309 311 309 308
231 264 308 10 133 115 120 106 109 106 107 109 109 108 117 120 120 124 129 135 138 117 102 146 133 181 215 304 280 302 316 357 343 6 337 323 296 307 320 323 310 305 305 309 310
217 226 200 213 143 122 128 123 127 118 120 120 114 115 116 138 132 141 141 155 134 114 118 81 83 95 62 331 312 328 353 350 332 341 343 337 332 312 316 308 304 303 308 312 315
206 204 190 180 142 136 131 142 138 138 130 122 132 122 118 132 124 130 128 139 93 83 121 115 116 59 24 339 354 346 336 333 323 337 342 331 330 314 291 272 266 296 314 334 318
200 201 185 136 144 140 138 143 146 159 144 133 140 142 126 114 107 107 131 106 92 140 128 85 184 30 22 311 348 320 320 315 322 322 323 329 330 101 17 354 350 321 347 335 338
201 194 175 145 146 151 147 148 154 153 141 120 150 122 117 130 123 115 107 120 120 63 27 358 357 292 216 286 336 298 287 292 306 334 319 322 316 317 316 333 320 346 6 344 337
196 185 177 161 156 158 154 154 173 156 131 160 148 130 135 147 107 120 141 148 73 60 47 309 303 275 306 286 262 274 306 315 310 319 312 317 309 302 317 329 336 342 2 348 340
190 182 175 163 158 156 164 178 187 175 137 122 100 125 99 84 134 358 222 115 94 3 73 300 313 312 298 278 284 283 302 309 321 320 315 305 308 307 315 314 318 337 348 341 340
176 169 170 168 154 150 207 186 158 148 134 26 148 158 201 110 349 152 175 150 153 131 209 233 256 264 268 253 280 277 300 319 316 320 313 307 306 305 308 312 292 342 342 338 339
170 171 167 165 172 184 176 186 166 127 122 88 359 358 153 79 127 208 196 253 278 203 210 250 260 282 284 274 274 297 310 322 314 318 295 301 307 303 310 347 359 346 340 338 334
185 182 178 178 169 198 178 187 119 72 109 48 340 91 87 211 339 12 330 250 236 217 231 237 271 288 316 288 272 304 318 317 315 317 295 295 298 298 306 323 339 336 336 329 329
190 187 189 183 185 166 189 147 131 121 115 99 0 94 163 251 298 319 250 247 264 276 256 284 282 287 312 313 312 316 325 329 324 330 320 297 290 299 317 329 322 330 329 329 331
188 178 180 175 175 170 186 162 143 124 115 172 155 129 210 237 244 254 220 244 269 274 282 288 275 289 312 317 313 319 311 328 324 325 284 300 304 316 334 330 331 336 331 330 333
168 158 162 176 160 168 179 190 227 140 140 165 196 211 229 255 258 224 248 266 282 297 293 293 292 278 282 290 292 310 319 323 315 304 268 311 318 325 342 337 335 336 330 332 333
166 164 158 166 151 162 176 195 247 186 226 206 215 220 236 242 242 274 264 272 283 300 307 302 297 264 266 279 295 302 314 328 312 296 299 296 311 326 334 334 335 336 330 335 339
163 149 166 150 156 177 190 220 255 271 239 229 245 258 256 282 275 263 290 292 299 297 289 294 295 298 281 294 301 312 321 319 290 298 305 314 323 331 335 335 337 333 332 337 336
163 161 160 157 177 203 215 237 234 244 260 260 263 273 275 276 265 265 279 293 290 285 289 296 299 294 292 297 302 299 303 308 300 310 318 330 331 337 334 336 334 332 331 337 338
180 180 173 168 192 225 236 243 250 257 267 271 278 278 272 271 284 270 276 287 301 293 302 300 298 302 293 302 300 287 309 297 301 315 326 331 331 333 336 335 334 329 334 338 335
188 195 205 223 249 254 251 253 261 253 264 276 281 281 291 294 289 294 302 298 306 309 307 303 305 313 310 313 297 281 278 306 321 329 335 332 334 329 333 334 336 333 336 336 334
199 205 207 212 219 240 243 260 272 284 288 284 281 292 305 305 293 298 303 305 308 314 319 323 317 311 305 314 270 272 336 331 327 333 338 331 330 330 335 337 335 331 334 332 334
200 204 203 212 225 236 244 256 268 282 293 301 310 306 307 297 298 298 294 297 301 307 320 317 313 303 284 277 294 264 281 307 318 336 336 329 328 331 333 337 335 334 334 337 335